Oklahoma City, OK

3:45 AM CDT on September 29, 2016 (GMT -0500)
Tinker Air Force Base

Weather History for KTIK - November, 2014

Change the Weather History Date:

Monday, November 17, 2014

  Actual Average Record
Temperature  
Mean Temperature 24 °F -  
Max Temperature 33 °F 57 °F 84 °F (1999)
Min Temperature 16 °F 39 °F 16 °F (2014)
Degree Days  
Heating Degree Days 40    
Moisture  
Dew Point 14 °F    
Average Humidity 64    
Maximum Humidity 78    
Minimum Humidity 45    
Precipitation  
Precipitation 0.00 in - - ()
Sea Level Pressure  
Sea Level Pressure 30.42 in    
Wind  
Wind Speed 8 mph (NW)    
Max Wind Speed 20 mph    
Max Gust Speed 23 mph    
Visibility 10 miles    
Events      
Averages and records for this station are not official NWS values.
T = Trace of Precipitation, MM = Missing Value Source: NWS Daily Summary

Daily Weather History Graph

Daily Weather History Graph

Search for Another Location

Airport or City:

Trip Planner

Search our weather history database for the weather conditions in past years. The results will help you decide how hot, cold, wet, or windy it might be!

Date:

Astronomy

Nov. 17, 2014 Rise Set
Actual Time 7:06 AM CST 5:21 PM CST
Civil Twilight 6:39 AM CST 5:49 PM CST
Nautical Twilight 6:08 AM CST 6:19 PM CST
Astronomical Twilight 5:38 AM CST 6:50 PM CST
Moon 2:20 AM CST (11/17) 2:36 PM CST (11/17)
Length of Visible Light 11h 09m
Length of Day
10h 15m
Waning Crescent, 22% of the Moon is Illuminated
Nov 17
Waning Crescent
Nov 22
New
Nov 29
First Quarter
Dec 6
Full
Dec 14
Last Quarter

Hourly Weather History & Observations

Time (CST) Temp. Windchill Dew Point Humidity Pressure Visibility Wind Dir Wind Speed Gust Speed Precip Events Conditions
12:58 AM 21.7 °F 17.0 °F 15.4 °F 77% 30.30 in 10.0 mi West 3.5 mph - N/A   Clear
1:58 AM 21.4 °F 15.1 °F 15.3 °F 77% 30.30 in 10.0 mi West 4.6 mph - N/A   Clear
2:58 AM 22.6 °F 10.7 °F 15.1 °F 73% 30.30 in 10.0 mi NNW 12.7 mph - N/A   Clear
3:58 AM 21.9 °F 10.4 °F 14.5 °F 73% 30.34 in 10.0 mi North 11.5 mph - N/A   Clear
4:58 AM 19.6 °F 9.7 °F 13.6 °F 78% 30.37 in 10.0 mi North 8.1 mph - N/A   Clear
5:58 AM 17.8 °F 8.5 °F 11.5 °F 76% 30.40 in 10.0 mi North 6.9 mph - N/A   Clear
6:58 AM 16.9 °F 8.5 °F 10.9 °F 77% 30.43 in 10.0 mi NW 5.8 mph - N/A   Clear
7:58 AM 17.6 °F 8.2 °F 11.5 °F 77% 30.45 in 10.0 mi NW 6.9 mph - N/A   Clear
8:58 AM 22.8 °F 12.2 °F 14.0 °F 69% 30.47 in 10.0 mi NW 10.4 mph - N/A   Clear
9:58 AM 25.9 °F 15.3 °F 13.3 °F 59% 30.48 in 10.0 mi NNW 11.5 mph - N/A   Clear
10:58 AM 28.0 °F 14.9 °F 14.5 °F 57% 30.48 in 10.0 mi NNW 19.6 mph - N/A   Clear
11:58 AM 29.5 °F 18.4 °F 14.7 °F 54% 30.47 in 10.0 mi NNW 15.0 mph - N/A   Clear
12:58 PM 30.9 °F 19.4 °F 14.9 °F 52% 30.45 in 10.0 mi NNW 17.3 mph 23.0 mph N/A   Clear
1:58 PM 31.6 °F 22.1 °F 14.0 °F 48% 30.44 in 10.0 mi NNW 12.7 mph - N/A   Clear
2:58 PM 32.7 °F 22.5 °F 13.5 °F 45% 30.42 in 10.0 mi NW 15.0 mph - N/A   Clear
3:58 PM 33.4 °F 25.4 °F 13.8 °F 45% 30.42 in 10.0 mi NW 10.4 mph - N/A   Clear
4:58 PM 32.0 °F 25.6 °F 14.4 °F 48% 30.41 in 10.0 mi NW 6.9 mph - N/A   Clear
5:58 PM 30.2 °F 25.4 °F 14.0 °F 51% 30.41 in 10.0 mi NW 4.6 mph - N/A   Clear
6:58 PM 30.0 °F - 13.5 °F 50% 30.43 in 10.0 mi West 2.3 mph - N/A   Clear
7:58 PM 26.6 °F 22.6 °F 14.4 °F 60% 30.45 in 10.0 mi South 3.5 mph - N/A   Clear
8:58 PM 24.3 °F 17.3 °F 15.3 °F 69% 30.44 in 10.0 mi SSW 5.8 mph - N/A   Clear
9:58 PM 26.1 °F 21.9 °F 14.4 °F 61% 30.44 in 10.0 mi SSW 3.5 mph - N/A   Clear
10:58 PM 23.5 °F 15.4 °F 15.3 °F 71% 30.44 in 10.0 mi South 6.9 mph - N/A   Clear
11:58 PM 21.2 °F 12.6 °F 15.1 °F 77% 30.43 in 10.0 mi South 6.9 mph - N/A   Clear